Time,TemperatureF,DewpointF,PressureIn,WindDirection,WindDirectionDegrees,WindSpeedMPH,WindSpeedGustMPH,Humidity,HourlyPrecipIn,Conditions,Clouds,dailyrainin,SolarRadiationWatts/m^2,SoftwareType,DateUTC
2013-06-13 00:01:00,46.0,25.0,-100.00,East,94,0.0,0.0,43,0.00,,,0.00,0.000000,,2013-06-13 07:01:00,
2013-06-13 08:22:00,46.0,13.0,-100.00,ENE,70,0.0,0.0,26,-99.99,,,0.00,104.000000,,2013-06-13 15:22:00,
2013-06-13 08:53:00,46.0,13.0,-100.00,ENE,70,0.0,0.0,26,-99.99,,,0.00,104.000000,,2013-06-13 15:53:00,
2013-06-13 09:02:00,63.0,13.0,-100.00,SE,127,0.0,3.0,14,-99.99,,,0.00,620.000000,,2013-06-13 16:02:00,
2013-06-13 09:22:00,63.0,13.0,-100.00,SE,127,0.0,3.0,14,-99.99,,,0.00,620.000000,,2013-06-13 16:22:00,
2013-06-13 09:33:00,63.0,13.0,-100.00,SE,127,0.0,3.0,14,-99.99,,,0.00,620.000000,,2013-06-13 16:33:00,
2013-06-13 09:43:00,63.0,13.0,-100.00,SE,127,0.0,3.0,14,-99.99,,,0.00,620.000000,,2013-06-13 16:43:00,
2013-06-13 09:53:00,63.0,13.0,-100.00,SE,127,0.0,3.0,14,-99.99,,,0.00,620.000000,,2013-06-13 16:53:00,
2013-06-13 10:02:00,69.0,8.0,-100.00,NW,304,0.0,8.0,9,0.00,,,0.00,822.000000,,2013-06-13 17:02:00,
2013-06-13 10:33:00,69.0,8.0,-100.00,NW,304,0.0,8.0,9,0.00,,,0.00,822.000000,,2013-06-13 17:33:00,
2013-06-13 10:43:00,69.0,8.0,-100.00,NW,304,0.0,8.0,9,0.00,,,0.00,822.000000,,2013-06-13 17:43:00,
2013-06-13 10:53:00,69.0,8.0,-100.00,NW,304,0.0,8.0,9,0.00,,,0.00,822.000000,,2013-06-13 17:53:00,
2013-06-13 11:33:00,69.0,2.0,-100.00,NW,307,1.0,13.0,7,0.00,,,0.00,994.000000,,2013-06-13 18:33:00,
2013-06-13 11:43:00,69.0,2.0,-100.00,NW,307,1.0,13.0,7,0.00,,,0.00,994.000000,,2013-06-13 18:43:00,
2013-06-13 11:52:00,69.0,2.0,-100.00,NW,307,1.0,13.0,7,0.00,,,0.00,994.000000,,2013-06-13 18:52:00,
2013-06-13 12:01:00,69.0,2.0,-100.00,NW,307,1.0,13.0,7,0.00,,,0.00,994.000000,,2013-06-13 19:01:00,
2013-06-13 12:22:00,72.0,12.0,-100.00,SSE,154,4.0,9.0,10,0.00,,,0.00,1009.000000,,2013-06-13 19:22:00,
2013-06-13 12:33:00,72.0,12.0,-100.00,SSE,154,4.0,9.0,10,0.00,,,0.00,1009.000000,,2013-06-13 19:33:00,
2013-06-13 12:43:00,72.0,12.0,-100.00,SSE,154,4.0,9.0,10,0.00,,,0.00,1009.000000,,2013-06-13 19:43:00,
2013-06-13 12:53:00,72.0,12.0,-100.00,SSE,154,4.0,9.0,10,0.00,,,0.00,1009.000000,,2013-06-13 19:53:00,
2013-06-13 13:01:00,72.0,12.0,-100.00,SSE,154,4.0,9.0,10,0.00,,,0.00,1009.000000,,2013-06-13 20:01:00,
2013-06-13 13:22:00,72.0,20.0,-100.00,South,185,3.0,11.0,14,0.00,,,0.00,1159.000000,,2013-06-13 20:22:00,
2013-06-13 13:33:00,72.0,20.0,-100.00,South,185,3.0,11.0,14,0.00,,,0.00,1159.000000,,2013-06-13 20:33:00,
2013-06-13 13:44:00,72.0,20.0,-100.00,South,185,3.0,11.0,14,0.00,,,0.00,1159.000000,,2013-06-13 20:44:00,
2013-06-13 13:53:00,72.0,20.0,-100.00,South,185,3.0,11.0,14,0.00,,,0.00,1159.000000,,2013-06-13 20:53:00,
2013-06-13 14:01:00,72.0,20.0,-100.00,South,185,3.0,11.0,14,0.00,,,0.00,1159.000000,,2013-06-13 21:01:00,
2013-06-13 14:34:00,72.0,23.0,-100.00,South,190,4.0,16.0,16,0.00,,,0.00,1152.000000,,2013-06-13 21:34:00,
2013-06-13 14:43:00,72.0,23.0,-100.00,South,190,4.0,16.0,16,0.00,,,0.00,1152.000000,,2013-06-13 21:43:00,
2013-06-13 14:52:00,72.0,23.0,-100.00,South,190,4.0,16.0,16,0.00,,,0.00,1152.000000,,2013-06-13 21:52:00,
2013-06-13 15:01:00,72.0,23.0,-100.00,South,190,4.0,16.0,16,0.00,,,0.00,1152.000000,,2013-06-13 22:01:00,
2013-06-13 15:33:00,73.0,27.0,-100.00,NW,306,5.0,13.0,18,0.00,,,0.00,1084.000000,,2013-06-13 22:33:00,
2013-06-13 15:43:00,73.0,27.0,-100.00,NW,306,5.0,13.0,18,0.00,,,0.00,1084.000000,,2013-06-13 22:43:00,
2013-06-13 15:52:00,73.0,27.0,-100.00,NW,306,5.0,13.0,18,0.00,,,0.00,1084.000000,,2013-06-13 22:52:00,
2013-06-13 16:01:00,73.0,27.0,-100.00,NW,306,5.0,13.0,18,0.00,,,0.00,1084.000000,,2013-06-13 23:01:00,
2013-06-13 16:22:00,71.0,25.0,-100.00,NW,311,4.0,11.0,18,0.00,,,0.00,967.000000,,2013-06-13 23:22:00,
2013-06-13 16:32:00,71.0,25.0,-100.00,NW,311,4.0,11.0,18,0.00,,,0.00,967.000000,,2013-06-13 23:32:00,
2013-06-13 16:43:00,71.0,25.0,-100.00,NW,311,4.0,11.0,18,0.00,,,0.00,967.000000,,2013-06-13 23:43:00,
2013-06-13 16:52:00,71.0,25.0,-100.00,NW,311,4.0,11.0,18,0.00,,,0.00,967.000000,,2013-06-13 23:52:00,
2013-06-13 17:01:00,71.0,25.0,-100.00,NW,311,4.0,11.0,18,0.00,,,0.00,967.000000,,2013-06-14 00:01:00,
2013-06-13 17:34:00,69.0,25.0,-100.00,NW,320,4.0,12.0,19,0.00,,,0.00,806.000000,,2013-06-14 00:34:00,
2013-06-13 17:43:00,69.0,25.0,-100.00,NW,320,4.0,12.0,19,0.00,,,0.00,806.000000,,2013-06-14 00:43:00,
2013-06-13 17:53:00,69.0,25.0,-100.00,NW,320,4.0,12.0,19,0.00,,,0.00,806.000000,,2013-06-14 00:53:00,
2013-06-13 18:01:00,69.0,25.0,-100.00,NW,320,4.0,12.0,19,0.00,,,0.00,806.000000,,2013-06-14 01:01:00,
2013-06-13 18:22:00,67.0,28.0,-100.00,NW,324,4.0,12.0,23,0.00,,,0.00,536.000000,,2013-06-14 01:22:00,
2013-06-13 18:33:00,67.0,28.0,-100.00,NW,324,4.0,12.0,23,0.00,,,0.00,536.000000,,2013-06-14 01:33:00,
2013-06-13 18:43:00,67.0,28.0,-100.00,NW,324,4.0,12.0,23,0.00,,,0.00,536.000000,,2013-06-14 01:43:00,
2013-06-13 18:52:00,67.0,28.0,-100.00,NW,324,4.0,12.0,23,0.00,,,0.00,536.000000,,2013-06-14 01:52:00,
2013-06-13 19:01:00,67.0,28.0,-100.00,NW,324,4.0,12.0,23,0.00,,,0.00,536.000000,,2013-06-14 02:01:00,
2013-06-13 19:02:00,65.0,28.0,-100.00,ESE,108,1.0,10.0,25,0.00,,,0.00,86.000000,,2013-06-14 02:02:00,
2013-06-13 19:22:00,65.0,28.0,-100.00,ESE,108,1.0,10.0,25,0.00,,,0.00,86.000000,,2013-06-14 02:22:00,
2013-06-13 19:33:00,65.0,28.0,-100.00,ESE,108,1.0,10.0,25,0.00,,,0.00,86.000000,,2013-06-14 02:33:00,
2013-06-13 19:43:00,65.0,28.0,-100.00,ESE,108,1.0,10.0,25,0.00,,,0.00,86.000000,,2013-06-14 02:43:00,
2013-06-13 19:52:00,65.0,28.0,-100.00,ESE,108,1.0,10.0,25,0.00,,,0.00,86.000000,,2013-06-14 02:52:00,
2013-06-13 20:34:00,57.0,27.0,-100.00,NE,54,0.0,7.0,31,0.00,,,0.00,72.000000,,2013-06-14 03:34:00,
2013-06-13 20:43:00,57.0,27.0,-100.00,NE,54,0.0,7.0,31,0.00,,,0.00,72.000000,,2013-06-14 03:43:00,
2013-06-13 20:53:00,57.0,27.0,-100.00,NE,54,0.0,7.0,31,0.00,,,0.00,72.000000,,2013-06-14 03:53:00,
2013-06-13 21:01:00,57.0,27.0,-100.00,NE,54,0.0,7.0,31,0.00,,,0.00,72.000000,,2013-06-14 04:01:00,
2013-06-13 21:23:00,52.0,28.0,-100.00,East,83,0.0,0.0,39,0.00,,,0.00,5.000000,,2013-06-14 04:23:00,
2013-06-13 21:33:00,52.0,28.0,-100.00,East,83,0.0,0.0,39,0.00,,,0.00,5.000000,,2013-06-14 04:33:00,
2013-06-13 21:43:00,52.0,28.0,-100.00,East,83,0.0,0.0,39,0.00,,,0.00,5.000000,,2013-06-14 04:43:00,
2013-06-13 21:53:00,52.0,28.0,-100.00,East,83,0.0,0.0,39,0.00,,,0.00,5.000000,,2013-06-14 04:53:00,
2013-06-13 22:01:00,52.0,28.0,-100.00,East,83,0.0,0.0,39,0.00,,,0.00,5.000000,,2013-06-14 05:01:00,
2013-06-13 22:02:00,46.0,25.0,-100.00,ENE,73,0.0,4.0,44,0.00,,,0.00,0.000000,,2013-06-14 05:02:00,
2013-06-13 22:22:00,46.0,25.0,-100.00,ENE,73,0.0,4.0,44,0.00,,,0.00,0.000000,,2013-06-14 05:22:00,
2013-06-13 22:52:00,46.0,25.0,-100.00,ENE,73,0.0,4.0,44,0.00,,,0.00,0.000000,,2013-06-14 05:52:00,
2013-06-13 23:23:00,44.0,24.0,-100.00,ESE,103,0.0,4.0,45,-99.99,,,0.00,0.000000,,2013-06-14 06:23:00,